Weather History for KLFI - October, 2012

Change the Weather History Date:

Sunday, October 7, 2012

  Actual Average (KORF) Record (KORF)
Temperature  
Mean Temperature 57 °F 65 °F  
Max Temperature 63 °F 73 °F 90 °F (1941)
Min Temperature 51 °F 57 °F 42 °F (1966)
Degree Days  
Heating Degree Days 8 3  
Month to date heating degree days 15  
Since 1 July heating degree days 26  
Cooling Degree Days 0 3  
Month to date cooling degree days 23  
Year to date cooling degree days 1588  
Growing Degree Days 7 (Base 50)    
Moisture  
Dew Point 50 °F    
Average Humidity 84    
Maximum Humidity 94    
Minimum Humidity 36    
Precipitation  
Precipitation 0.57 in 0.12 in 1.21 in (1891)
Month to date precipitation 0.79  
Year to date precipitation 37.49  
Snow  
Snow 0.00 in 0.00 in 0.00 in (2002)
Month to date snowfall 0.0  
Since 1 July snowfall 0.0  
Snow Depth -    
Sea Level Pressure  
Sea Level Pressure 30.07 in    
Wind  
Wind Speed 15 mph (North)    
Max Wind Speed 22 mph    
Max Gust Speed 25 mph    
Visibility 6 miles    
Events Rain , Thunderstorm    
T = Trace of Precipitation, MM = Missing Value Source: NWS Daily Summary

Daily Weather History Graph

Daily Weather History Graph

Search for Another Location

Airport or City:

Trip Planner

Search our weather history database for the weather conditions in past years. The results will help you decide how hot, cold, wet, or windy it might be!

Date:

Astronomy

Oct. 07, 2012 Rise Set
Actual Time 7:06 AM EDT 6:39 PM EDT
Civil Twilight 6:40 AM EDT 7:05 PM EDT
Nautical Twilight 6:10 AM EDT 7:35 PM EDT
Astronomical Twilight 5:40 AM EDT 8:05 PM EDT
Moon 11:54 PM EDT (10/7) 1:36 PM EDT (10/7)
Length of Visible Light 12h 24m
Length of Day
11h 32m
Waning Gibbous, 56% of the Moon is Illuminated
Oct 7
Waning Gibbous
Oct 8
Last Quarter
Oct 15
New
Oct 21
First Quarter
Oct 29
Full

Hourly Weather History & Observations

Time (EDT) Temp. Dew Point Humidity Pressure Visibility Wind Dir Wind Speed Gust Speed Precip Events Conditions
12:55 AM 63.7 °F 37.8 °F 38% 30.01 in 10.0 mi NNE 13.8 mph 19.6 mph N/A   Overcast
1:55 AM 62.1 °F 41.7 °F 47% 30.00 in 10.0 mi North 15.0 mph 20.7 mph N/A   Scattered Clouds
2:55 AM 63.7 °F 41.0 °F 43% 30.00 in 10.0 mi NNE 19.6 mph - N/A   Overcast
3:55 AM 62.8 °F 35.4 °F 36% 30.01 in 10.0 mi NE 21.9 mph - N/A   Overcast
4:55 AM 62.4 °F 35.8 °F 37% 30.04 in 10.0 mi NE 17.3 mph - N/A   Overcast
5:11 AM 62.6 °F 35.6 °F 37% 30.06 in 10.0 mi NNE 13.8 mph - N/A Rain Rain
5:55 AM 57.0 °F 46.2 °F 67% 30.07 in 6.0 mi North 16.1 mph - 0.04 in Rain Rain
5:58 AM 55.4 °F 46.4 °F 72% 30.06 in 2.5 mi NNE 13.8 mph - N/A Rain Light Rain
5:59 AM 55.4 °F 46.4 °F 72% 30.06 in 2.5 mi NNE 12.7 mph - N/A Rain Rain
6:04 AM 55.4 °F 46.4 °F 72% 30.06 in 2.5 mi NNE 12.7 mph - N/A Rain Light Rain
6:05 AM 55.4 °F 48.2 °F 77% 30.06 in 2.5 mi NNE 12.7 mph - N/A Rain Light Rain
6:08 AM 55.4 °F 48.2 °F 77% 30.06 in 3.0 mi North 12.7 mph - N/A Rain Light Rain
6:28 AM 55.4 °F 48.2 °F 77% 30.06 in 6.0 mi NNE 18.4 mph - N/A Rain Light Rain
6:31 AM 55.4 °F 48.2 °F 77% 30.05 in 6.0 mi NNE 17.3 mph - N/A Rain Light Rain
6:38 AM 55.4 °F 48.2 °F 77% 30.05 in 10.0 mi NNE 20.7 mph - N/A   Overcast
6:55 AM 55.6 °F 47.5 °F 74% 30.05 in 10.0 mi NNE 21.9 mph - 0.05 in   Overcast
7:36 AM 57.2 °F 48.2 °F 72% 30.05 in 10.0 mi NNE 17.3 mph 23.0 mph N/A   Overcast
7:40 AM 57.2 °F 48.2 °F 72% 30.05 in 10.0 mi NNE 20.7 mph 25.3 mph N/A   Overcast
7:45 AM 57.2 °F 48.2 °F 72% 30.05 in 10.0 mi NNE 19.6 mph 25.3 mph N/A   Overcast
7:55 AM 56.7 °F 48.6 °F 74% 30.04 in 10.0 mi NNE 20.7 mph - N/A   Overcast
8:25 AM 57.2 °F 50.0 °F 77% 30.06 in 10.0 mi NNE 18.4 mph - N/A   Overcast
8:30 AM 57.2 °F 50.0 °F 77% 30.06 in 10.0 mi NNE 19.6 mph - N/A   Overcast
8:55 AM 57.9 °F 48.9 °F 72% 30.05 in 10.0 mi NE 18.4 mph - N/A   Overcast
9:21 AM 59.0 °F 48.2 °F 67% 30.06 in 10.0 mi NNE 17.3 mph - N/A Rain Light Rain
9:32 AM 59.0 °F 48.2 °F 67% 30.06 in 10.0 mi NNE 18.4 mph - N/A   Overcast
9:41 AM 59.0 °F 48.2 °F 67% 30.06 in 10.0 mi NE 18.4 mph - N/A   Overcast
9:43 AM 59.0 °F 48.2 °F 67% 30.06 in 10.0 mi NNE 16.1 mph - N/A Rain Light Rain
9:55 AM 57.7 °F 49.5 °F 74% 30.06 in 3.0 mi NNE 18.4 mph - 0.01 in Rain Light Rain
9:59 AM 57.2 °F 50.0 °F 77% 30.06 in 4.0 mi NNE 17.3 mph - N/A Rain Light Rain
10:06 AM 57.2 °F 50.0 °F 77% 30.07 in 1.0 mi NNE 16.1 mph - N/A Rain Heavy Rain
10:17 AM 57.2 °F 50.0 °F 77% 30.08 in 2.5 mi North 13.8 mph - N/A Rain Rain
10:19 AM 57.2 °F 51.8 °F 82% 30.08 in 3.0 mi North 13.8 mph - N/A Rain Rain
10:28 AM 57.2 °F 51.8 °F 82% 30.07 in 4.0 mi NE 16.1 mph - N/A Rain Light Rain
10:38 AM 57.2 °F 51.8 °F 82% 30.07 in 3.0 mi NNE 15.0 mph - N/A Rain Light Rain
10:41 AM 57.2 °F 51.8 °F 82% 30.07 in 3.0 mi NNE 11.5 mph - N/A Rain Light Rain
10:55 AM 57.0 °F 52.0 °F 83% 30.08 in 8.0 mi NNE 16.1 mph - 0.11 in Rain Light Rain
11:16 AM 55.4 °F 51.8 °F 88% 30.11 in 2.0 mi NNW 17.3 mph - N/A Rain Heavy Rain
11:22 AM 55.4 °F 51.8 °F 88% 30.09 in 2.0 mi North 17.3 mph 21.9 mph N/A Rain Heavy Rain
11:28 AM 55.4 °F 50.0 °F 82% 30.09 in 1.8 mi NNW 12.7 mph - N/A Rain Heavy Rain
11:33 AM 53.6 °F 51.8 °F 94% 30.09 in 1.5 mi NNW 11.5 mph - N/A Rain Heavy Rain
11:34 AM 53.6 °F 51.8 °F 94% 30.09 in 1.5 mi NNW 12.7 mph - N/A Rain Heavy Rain
11:36 AM 53.6 °F 51.8 °F 94% 30.09 in 1.5 mi NNW 15.0 mph - N/A Rain , Thunderstorm Heavy Thunderstorms and Rain
11:39 AM 53.6 °F 51.8 °F 94% 30.09 in 1.5 mi North 10.4 mph - N/A Rain , Thunderstorm Heavy Thunderstorms and Rain
11:45 AM 53.6 °F 51.8 °F 94% 30.08 in 1.0 mi North 10.4 mph - N/A Rain , Thunderstorm Heavy Thunderstorms and Rain
11:48 AM 53.6 °F 51.8 °F 94% 30.08 in 0.8 mi North 11.5 mph - N/A Rain , Thunderstorm Heavy Thunderstorms and Rain
11:55 AM 53.8 °F 51.1 °F 91% 30.09 in 0.8 mi NNE 10.4 mph - 0.21 in Rain , Thunderstorm Thunderstorms and Rain
11:57 AM 53.6 °F 51.8 °F 94% 30.09 in 1.0 mi NNW 8.1 mph - N/A Rain Heavy Rain
12:01 PM 53.6 °F 51.8 °F 94% 30.09 in 1.0 mi North 5.8 mph - N/A Rain Heavy Rain
12:12 PM 55.4 °F 51.8 °F 88% 30.05 in 1.2 mi NE 13.8 mph - N/A Rain Rain
12:15 PM 55.4 °F 53.6 °F 94% 30.05 in 1.5 mi NE 15.0 mph - N/A Rain Rain
12:18 PM 55.4 °F 53.6 °F 94% 30.05 in 1.5 mi NE 13.8 mph - N/A Rain Light Rain
12:19 PM 55.4 °F 53.6 °F 94% 30.05 in 1.8 mi NE 15.0 mph - N/A Rain Light Rain
12:22 PM 55.4 °F 53.6 °F 94% 30.04 in 2.0 mi NE 16.1 mph - N/A Rain Light Rain
12:27 PM 55.4 °F 53.6 °F 94% 30.03 in 2.5 mi NE 18.4 mph - N/A Rain Light Rain
12:29 PM 55.4 °F 53.6 °F 94% 30.04 in 2.5 mi NE 17.3 mph - N/A Rain Light Rain
12:32 PM 57.2 °F 55.4 °F 94% 30.04 in 3.0 mi NE 18.4 mph - N/A Rain Light Rain
12:37 PM 57.2 °F 55.4 °F 94% 30.05 in 5.0 mi NNE 16.1 mph - N/A Rain Light Rain
12:45 PM 57.2 °F 55.4 °F 94% 30.06 in 10.0 mi NNE 17.3 mph - N/A   Overcast
12:55 PM 56.8 °F 54.7 °F 92% 30.06 in 10.0 mi NNE 13.8 mph - 0.12 in   Overcast
12:59 PM 57.2 °F 55.4 °F 94% 30.05 in 10.0 mi NNE 15.0 mph - N/A   Overcast
1:55 PM 57.2 °F 53.4 °F 87% 30.04 in 10.0 mi NNE 15.0 mph - N/A   Overcast
2:14 PM 57.2 °F 53.6 °F 88% 30.03 in 10.0 mi NNE 16.1 mph - N/A   Overcast
2:42 PM 57.2 °F 53.6 °F 88% 30.02 in 10.0 mi NNE 13.8 mph - N/A   Overcast
2:55 PM 57.9 °F 52.9 °F 83% 30.02 in 10.0 mi NNE 12.7 mph - N/A   Overcast
3:31 PM 57.2 °F 51.8 °F 82% 30.02 in 10.0 mi NNE 10.4 mph - N/A Rain Light Rain
3:55 PM 57.4 °F 53.1 °F 85% 30.01 in 10.0 mi North 11.5 mph - 0.00 in Rain Light Rain
4:09 PM 57.2 °F 53.6 °F 88% 30.01 in 10.0 mi North 6.9 mph - N/A   Overcast
4:55 PM 56.8 °F 53.4 °F 88% 30.01 in 10.0 mi NNE 9.2 mph - 0.01 in   Overcast
5:55 PM 57.4 °F 54.9 °F 91% 30.03 in 7.0 mi North 8.1 mph - N/A   Overcast
6:23 PM 57.2 °F 55.4 °F 94% 30.04 in 4.0 mi NNW 9.2 mph - N/A   Overcast
6:30 PM 57.2 °F 55.4 °F 94% 30.04 in 3.0 mi NNW 10.4 mph - N/A   Overcast
6:31 PM 57.2 °F 55.4 °F 94% 30.04 in 3.0 mi NNW 10.4 mph - N/A Rain Light Rain
6:34 PM 57.2 °F 53.6 °F 88% 30.04 in 2.5 mi NW 9.2 mph - N/A Rain Light Rain
6:41 PM 55.4 °F 53.6 °F 94% 30.05 in 2.0 mi NW 10.4 mph - N/A Rain Light Rain
6:42 PM 55.4 °F 53.6 °F 94% 30.05 in 2.5 mi NW 10.4 mph - N/A Rain Light Rain
6:47 PM 55.4 °F 53.6 °F 94% 30.06 in 2.5 mi NW 13.8 mph - N/A Rain Light Rain
6:55 PM 55.0 °F 53.1 °F 93% 30.06 in 2.5 mi NW 12.7 mph - 0.00 in Rain Light Rain
6:56 PM 55.4 °F 53.6 °F 94% 30.06 in 2.5 mi NW 10.4 mph - N/A Rain Light Rain
7:01 PM 53.6 °F 51.8 °F 94% 30.07 in 2.0 mi NW 12.7 mph - N/A Rain Light Rain
7:02 PM 53.6 °F 51.8 °F 94% 30.07 in 2.0 mi NW 13.8 mph - N/A Rain Light Rain
7:26 PM 53.6 °F 51.8 °F 94% 30.09 in 1.8 mi NW 13.8 mph - N/A Rain Light Rain
7:55 PM 53.1 °F 51.4 °F 94% 30.10 in 1.8 mi NW 15.0 mph - 0.01 in Rain Light Rain
8:02 PM 53.6 °F 50.0 °F 88% 30.10 in 2.0 mi NW 11.5 mph 20.7 mph N/A Rain Light Rain
8:05 PM 51.8 °F 50.0 °F 94% 30.10 in 1.8 mi NNW 15.0 mph - N/A Rain Light Rain
8:09 PM 51.8 °F 50.0 °F 94% 30.10 in 2.0 mi NNW 12.7 mph - N/A Rain Light Rain
8:16 PM 51.8 °F 50.0 °F 94% 30.11 in 2.5 mi NW 15.0 mph - N/A Rain Light Rain
8:22 PM 51.8 °F 50.0 °F 94% 30.12 in 3.0 mi NW 15.0 mph - N/A Rain Light Rain
8:29 PM 51.8 °F 50.0 °F 94% 30.12 in 4.0 mi NW 12.7 mph 19.6 mph N/A Rain Light Rain
8:30 PM 51.8 °F 50.0 °F 94% 30.12 in 4.0 mi NW 10.4 mph 19.6 mph N/A Rain Light Rain
8:43 PM 51.8 °F 50.0 °F 94% 30.13 in 4.0 mi NW 16.1 mph - N/A Rain Light Rain
8:44 PM 51.8 °F 50.0 °F 94% 30.13 in 3.0 mi NW 17.3 mph - N/A Rain Light Rain
8:55 PM 52.0 °F 49.5 °F 91% 30.13 in 3.0 mi NW 11.5 mph - 0.00 in Rain Light Rain
9:04 PM 51.8 °F 50.0 °F 94% 30.14 in 3.0 mi NW 10.4 mph - N/A Rain Light Rain
9:21 PM 51.8 °F 50.0 °F 94% 30.14 in 5.0 mi NNW 15.0 mph - N/A Rain Light Rain
9:24 PM 51.8 °F 50.0 °F 94% 30.14 in 5.0 mi NNW 11.5 mph - N/A   Overcast
9:32 PM 51.8 °F 50.0 °F 94% 30.14 in 9.0 mi NNW 13.8 mph - N/A   Overcast
9:44 PM 51.8 °F 50.0 °F 94% 30.14 in 10.0 mi NNW 12.7 mph - N/A   Overcast
9:55 PM 52.0 °F 49.1 °F 90% 30.14 in 10.0 mi NNW 12.7 mph - 0.01 in   Overcast
9:58 PM 51.8 °F 48.2 °F 88% 30.14 in 10.0 mi NNW 9.2 mph - N/A   Overcast
10:05 PM 51.8 °F 48.2 °F 88% 30.15 in 10.0 mi NNW 10.4 mph - N/A   Overcast
10:37 PM 51.8 °F 48.2 °F 88% 30.14 in 10.0 mi North 9.2 mph - N/A   Overcast
10:43 PM 51.8 °F 48.2 °F 88% 30.14 in 10.0 mi NNW 10.4 mph - N/A   Overcast
10:55 PM 52.5 °F 49.1 °F 88% 30.14 in 10.0 mi NNW 9.2 mph - N/A   Overcast
11:05 PM 53.6 °F 50.0 °F 88% 30.14 in 10.0 mi NW 9.2 mph - N/A   Overcast
11:09 PM 53.6 °F 50.0 °F 88% 30.15 in 10.0 mi NNW 10.4 mph - N/A   Overcast
11:38 PM 53.6 °F 50.0 °F 88% 30.15 in 10.0 mi NNW 10.4 mph - N/A   Overcast
11:55 PM 52.9 °F 49.3 °F 88% 30.15 in 10.0 mi NNW 8.1 mph - N/A   Overcast